Home > Time Zones > World Clock > Weather > France > Lens > Past weeks

Flag for France Weather past 2 weeks in Lens, France

Now
57 °F

Passing clouds.


Feels Like: 53 °F
Forecast: 39 / 59 °F
Wind: 17 mph from East

Location: Lille Airport

Current Time: Apr 18, 2015 at 2:21:12 PM

Latest Report: Apr 18, 2015 at 2:00 PM


Visibility: N/A

Pressure: 30.30 "Hg

Humidity: 41%

Dew point: 34 °F

Location of LensLocation

Historic Weather in Lens — Graph

°F

Lens temperature yesterday

Maximum temperature yesterday: 59 °F (at 3:00 PM)
Minimum temperature yesterday: 46 °F (at 7:30 AM)
Average temperature yesterday: 52 °F

Past Weeks' High & Low Weather Summary

 TemperatureHumidityPressure
High79 °F (Apr 15, 4:30 PM)100% (Apr 3, 1:30 PM)30.66 "Hg (Apr 3, 1:30 PM)
Low32 °F (Apr 7, 5:30 AM)23% (Apr 15, 5:30 PM)29.89 "Hg (Apr 16, 5:30 PM)
Average51 °F71%30.25 "Hg
* Reported Apr 3 1:00 PM — Apr 18 1:00 PM, Lens, Weather by CustomWeather, © 2015

Note: Actual official high and low records may vary slightly from our data, if they occured in-between our weather recording intervals... More about our weather records

Advertising

Lens weather history for previous 24 hours

 ConditionsComfort  
Time TempWeatherWind HumidityBarometerVisibility
1:00 PM
Sat, Apr 18
55 °FSunny.16 mph44%30.30 "Hg10 mi
12:30 PM55 °FSunny.17 mph41%30.33 "Hg10 mi
12:00 PM55 °FSunny.16 mph44%30.30 "Hg10 mi
11:30 AM52 °FPassing clouds.13 mph47%30.30 "HgN/A
11:00 AM50 °FSunny.12 mph54%30.33 "Hg10 mi
10:30 AM50 °FSunny.13 mph62%30.30 "Hg10 mi
10:00 AM46 °FSunny.12 mph66%30.30 "Hg10 mi
9:30 AM45 °FSunny.12 mph71%30.30 "Hg10 mi
9:00 AM43 °FSunny.13 mph76%30.30 "Hg10 mi
8:30 AM43 °FSunny.12 mph71%30.30 "Hg10 mi
8:00 AM41 °FSunny.9 mph81%30.30 "Hg10 mi
7:30 AM41 °FClear.9 mph76%30.27 "Hg10 mi
7:00 AM41 °FClear.9 mph76%30.27 "Hg10 mi
6:30 AM41 °FClear.9 mph76%30.27 "Hg10 mi
6:00 AM41 °FClear.10 mph81%30.27 "Hg10 mi
5:30 AM41 °FClear.10 mph81%30.27 "HgN/A
5:00 AM41 °FClear.10 mph81%30.27 "HgN/A
4:30 AM43 °FClear.9 mph76%30.27 "HgN/A
4:00 AM43 °FClear.12 mph76%30.24 "HgN/A
3:30 AM43 °FClear.13 mph76%30.24 "HgN/A
3:00 AM45 °FClear.13 mph71%30.24 "HgN/A
2:30 AM45 °FClear.13 mph71%30.24 "HgN/A
2:00 AM45 °FClear.13 mph71%30.24 "HgN/A
1:30 AM45 °FClear.13 mph76%30.24 "HgN/A
1:00 AM46 °FClear.14 mph71%30.24 "HgN/A
12:30 AM46 °FClear.15 mph71%30.21 "HgN/A
12:00 AM46 °FClear.15 mph71%30.21 "HgN/A
11:30 PM
Fri, Apr 17
46 °FClear.14 mph71%30.18 "HgN/A
11:00 PM46 °FClear.13 mph76%30.18 "HgN/A
10:30 PM48 °FClear.14 mph71%30.18 "HgN/A
10:00 PM48 °FClear.14 mph71%30.18 "Hg10 mi
9:00 PM50 °FSunny.17 mph71%30.15 "Hg10 mi
8:30 PM52 °FSunny.15 mph58%30.12 "Hg10 mi
8:00 PM54 °FSunny.15 mph54%30.12 "Hg10 mi
7:30 PM54 °FSunny.17 mph54%30.09 "Hg10 mi
7:00 PM55 °FSunny.18 mph55%30.09 "Hg10 mi
6:30 PM57 °FSunny.20 mph51%30.09 "Hg10 mi
6:00 PM57 °FPassing clouds.16 mph41%30.07 "HgN/A
5:30 PM59 °FSunny.17 mph39%30.07 "Hg10 mi
5:00 PM59 °FSunny.16 mph39%30.07 "Hg10 mi
4:30 PM59 °FPassing clouds.17 mph36%30.07 "HgN/A
4:00 PM59 °FPassing clouds.17 mph36%30.07 "HgN/A
3:30 PM59 °FSunny.17 mph34%30.07 "Hg10 mi
3:00 PM59 °FSunny.15 mph34%30.07 "Hg10 mi
2:30 PM57 °FSunny.15 mph36%30.07 "Hg10 mi
2:00 PM57 °FSunny.15 mph36%30.07 "Hg10 mi
Weather by CustomWeather, © 2015

See weather overviewHow to use our weather pages